This is the latest recevied weather packets stored in our database for station/object WP3OF-2. If no packets are shown the sender has not sent any weather packets the latest 10 day(s).
| Time | Temp. | Humidity | Pressure | Rain* | Wind** | Luminosity | Snow |
|---|---|---|---|---|---|---|---|
| 1777934546 | 20.56° C | 97% | 1025.6 hPa | 0 mm | - | 6 W/m² | - |
| 1777934242 | 20.56° C | 97% | 1025.6 hPa | 0 mm | - | 10 W/m² | - |
| 1777933937 | 20.56° C | 97% | 1025.2 hPa | 0 mm | - | 16 W/m² | - |
| 1777933635 | 20.56° C | 97% | 1025.2 hPa | 0 mm | - | 17 W/m² | - |
| 1777933331 | 20.56° C | 96% | 1025.2 hPa | 0 mm | - | 19 W/m² | - |
| 1777933029 | 20.56° C | 96% | 1025.2 hPa | 0 mm | - | 20 W/m² | - |
| 1777932726 | 20.56° C | 96% | 1024.9 hPa | 0 mm | - | 24 W/m² | - |
| 1777932422 | 20.56° C | 96% | 1025.2 hPa | 0 mm | - | 29 W/m² | - |
| 1777932120 | 20.56° C | 96% | 1025.2 hPa | 0 mm | - | 38 W/m² | - |
| 1777931816 | 20.56° C | 95% | 1024.9 hPa | 0 mm | - | 40 W/m² | - |
| 1777931514 | 20.56° C | 95% | 1024.9 hPa | 0 mm | - | 47 W/m² | - |
| 1777931209 | 20.56° C | 95% | 1024.9 hPa | 0 mm | - | 62 W/m² | - |
| 1777930906 | 21.11° C | 94% | 1024.9 hPa | 0 mm | - | 86 W/m² | - |
| 1777930602 | 21.11° C | 93% | 1024.9 hPa | 0 mm | - | 89 W/m² | - |
| 1777930299 | 21.11° C | 94% | 1024.9 hPa | 0 mm | - | 102 W/m² | - |
| 1777929996 | 21.11° C | 94% | 1024.9 hPa | 0 mm | - | 118 W/m² | - |
| 1777929692 | 21.11° C | 94% | 1024.9 hPa | 0 mm | - | 139 W/m² | - |
| 1777929390 | 21.11° C | 94% | 1024.5 hPa | 0 mm | - | 120 W/m² | - |
| 1777929086 | 21.11° C | 94% | 1024.9 hPa | 0 mm | - | 97 W/m² | - |
| 1777928784 | 21.11° C | 94% | 1024.9 hPa | 0 mm | - | 121 W/m² | - |
| 1777928480 | 21.67° C | 93% | 1024.9 hPa | 0 mm | - | 125 W/m² | - |
| 1777928178 | 22.22° C | 91% | 1024.9 hPa | 0 mm | - | 144 W/m² | - |
| 1777927876 | 21.67° C | 93% | 1024.9 hPa | 0 mm | - | 416 W/m² | - |
| 1777927574 | 21.67° C | 93% | 1024.5 hPa | 0 mm | - | 443 W/m² | - |
| 1777927273 | 21.67° C | 92% | 1024.5 hPa | 0 mm | - | 92 W/m² | - |
* Rain latest hour (hover to see other rain measurements)
** Current wind speed in m/s (hover to see current wind gust speed)